EW2082 Weather Reports


Display with metric or nautical units.
time (UTC)temp
F
wind
direction
speed
MPH
gust
MPH
rain 1hr
in
rain 24hr
in
rain mn
in
humidity
%
barometer
mb
20260905002003 81 310 2.0 4.0 0.00 0.00 0.00 61 1011.8
20260905001004 82 275 0.0 1.0 0.00 0.00 0.00 60 1011.9
20260905000005 82 122 0.0 3.0 0.00 0.00 0.00 60 1011.8
20260904235003 83 15 0.0 2.0 0.00 0.00 0.00 58 1011.9
20260904234003 84 17 0.0 2.0 0.00 0.00 0.00 57 1011.7
20260904233004 86 22 0.0 1.0 0.00 0.00 0.00 52 1011.8
20260904232003 85 134 0.0 1.0 0.00 0.00 0.00 41 1011.9
20260904231003 85 322 0.0 0.0 0.00 0.00 0.00 38 1011.7
20260904230005 85 203 0.0 2.0 0.00 0.00 0.00 41 1011.9
20260904225003 85 203 0.0 0.0 0.00 0.00 0.00 43 1011.9
20260904224004 85 161 0.0 3.0 0.00 0.00 0.00 44 1011.9
20260904223003 85 51 0.0 2.0 0.00 0.00 0.00 41 1012.1
20260904222003 85 179 0.0 0.0 0.00 0.00 0.00 43 1012.0
20260904221003 84 120 0.0 3.0 0.00 0.00 0.00 47 1012.1
20260904220004 84 186 0.0 2.0 0.00 0.00 0.00 47 1012.2
20260904215004 84 209 0.0 2.0 0.00 0.00 0.00 50 1012.2
20260904214004 84 52 0.0 0.0 0.00 0.00 0.00 51 1012.3
20260904213003 84 236 0.0 1.0 0.00 0.00 0.00 49 1012.4
20260904211005 84 160 0.0 0.0 0.00 0.00 0.00 51 1012.5
20260904210005 84 175 0.0 0.0 0.00 0.00 0.00 52 1012.5
20260904205004 84 231 1.0 1.0 0.00 0.00 0.00 52 1012.5
20260904204005 84 78 0.0 0.0 0.00 0.00 0.00 51 1012.5
20260904203006 83 212 0.0 3.0 0.00 0.00 0.00 54 1012.6
20260904201004 82 212 0.0 7.0 0.00 0.00 0.00 56 1012.9
20260904195004 82 168 1.0 3.0 0.00 0.00 0.00 57 1012.9
20260904194004 82 203 0.0 4.0 0.00 0.00 0.00 59 1013.1
20260904193005 81 28 0.0 3.0 0.00 0.00 0.00 57 1013.2
20260904192004 81 268 0.0 4.0 0.00 0.00 0.00 61 1013.2
20260904191004 81 245 0.0 4.0 0.00 0.00 0.00 60 1013.5
20260904190005 81 244 0.0 4.0 0.00 0.00 0.00 61 1013.7
20260904185004 81 146 0.0 4.0 0.00 0.00 0.00 60 1013.6
20260904184005 80 203 0.0 3.0 0.00 0.00 0.00 59 1013.7
20260904183004 80 218 0.0 5.0 0.00 0.00 0.00 60 1013.7
20260904182004 80 349 0.0 3.0 0.00 0.00 0.00 62 1013.6
20260904180004 79 158 0.0 2.0 0.00 0.00 0.00 61 1013.7
20260904175004 79 127 0.0 1.0 0.00 0.00 0.00 63 1013.8
20260904174004 79 172 0.0 1.0 0.00 0.00 0.00 62 1013.8
20260904173004 79 186 0.0 3.0 0.00 0.00 0.00 62 1013.7
20260904172004 79 255 0.0 0.0 0.00 0.00 0.00 63 1013.6
20260904171004 78 211 0.0 3.0 0.00 0.00 0.00 65 1013.6
20260904170006 77 178 0.0 3.0 0.00 0.00 0.00 65 1013.5
20260904165004 76 193 0.0 2.0 0.00 0.00 0.00 68 1013.3
20260904164004 76 156 0.0 4.0 0.00 0.00 0.00 68 1013.3
20260904163004 75 349 0.0 1.0 0.00 0.00 0.00 68 1013.1
20260904162004 76 113 0.0 1.0 0.00 0.00 0.00 66 1013.0
20260904161004 77 109 0.0 1.0 0.00 0.00 0.00 67 1013.0
20260904160004 76 285 0.0 0.0 0.00 0.00 0.00 69 1013.0
20260904155004 75 155 0.0 0.0 0.00 0.00 0.00 71 1012.9
20260904154004 75 101 0.0 0.0 0.00 0.00 0.00 72 1012.9
20260904153004 74 123 0.0 1.0 0.00 0.00 0.00 76 1012.9
20260904152004 72 92 0.0 1.0 0.00 0.00 0.00 81 1013.0
20260904151004 69 150 0.0 1.0 0.00 0.00 0.00 86 1012.9
20260904150004 66 25 0.0 1.0 0.00 0.00 0.00 91 1012.8
20260904144005 64 235 0.0 0.0 0.00 0.00 0.00 92 1012.8
20260904142004 63 235 0.0 0.0 0.00 0.00 0.00 92 1012.4
20260904141005 63 235 0.0 0.0 0.00 0.00 0.00 92 1012.3
20260904140005 62 235 0.0 0.0 0.00 0.00 0.00 93 1012.2
20260904135004 62 235 0.0 0.0 0.00 0.00 0.00 93 1012.1
20260904134004 62 235 0.0 0.0 0.00 0.00 0.00 92 1012.1
20260904133005 62 235 0.0 0.0 0.00 0.00 0.00 92 1012.1
20260904132004 61 235 0.0 0.0 0.00 0.00 0.00 92 1012.1
20260904131004 61 235 0.0 0.0 0.00 0.00 0.00 92 1012.1
20260904125004 62 235 0.0 0.0 0.00 0.00 0.00 92 1011.9
20260904124004 62 235 0.0 0.0 0.00 0.00 0.00 92 1011.9
20260904123005 62 235 0.0 0.0 0.00 0.00 0.00 92 1011.8
20260904121004 62 235 0.0 0.0 0.00 0.00 0.00 92 1011.7
20260904120005 61 235 0.0 0.0 0.00 0.00 0.00 92 1011.8
20260904115004 61 235 0.0 0.0 0.00 0.00 0.00 92 1011.8
20260904114004 62 235 0.0 0.0 0.00 0.00 0.00 92 1011.8
20260904113004 62 235 0.0 0.0 0.00 0.00 0.00 92 1011.8
20260904112004 62 235 0.0 0.0 0.00 0.00 0.00 91 1011.8
20260904110005 62 235 0.0 0.0 0.00 0.00 0.00 91 1011.8
20260904105004 62 235 0.0 0.0 0.00 0.00 0.00 91 1011.9
20260904104004 62 235 0.0 0.0 0.00 0.00 0.00 91 1011.9
20260904101004 62 235 0.0 0.0 0.00 0.00 0.00 90 1011.7
20260904100005 62 235 0.0 0.0 0.00 0.00 0.00 90 1011.8
20260904095004 62 235 0.0 0.0 0.00 0.00 0.00 90 1011.8
20260904094004 63 235 0.0 0.0 0.00 0.00 0.00 90 1011.7
20260904093004 63 235 0.0 0.0 0.00 0.00 0.00 90 1011.8
20260904092004 62 235 0.0 0.0 0.00 0.00 0.00 90 1011.8
20260904090004 63 235 0.0 0.0 0.00 0.00 0.00 89 1011.8
20260904085004 63 235 0.0 0.0 0.00 0.00 0.00 89 1011.8
20260904084004 63 235 0.0 0.0 0.00 0.00 0.00 89 1012.0
20260904082003 64 235 0.0 0.0 0.00 0.00 0.00 89 1012.0
20260904081006 64 235 0.0 0.0 0.00 0.00 0.00 89 1012.0
20260904080005 64 235 0.0 0.0 0.00 0.00 0.00 89 1011.9
20260904075004 64 235 0.0 0.0 0.00 0.00 0.00 89 1012.0
20260904074005 64 235 0.0 0.0 0.00 0.00 0.00 89 1011.8
20260904073004 64 235 0.0 0.0 0.00 0.00 0.00 88 1012.0
20260904072004 64 235 0.0 0.0 0.00 0.00 0.00 88 1012.0
20260904071004 64 235 0.0 0.0 0.00 0.00 0.00 88 1012.0
20260904070007 65 235 0.0 0.0 0.00 0.00 0.00 88 1012.0
20260904065006 64 235 0.0 0.0 0.00 0.00 0.00 88 1012.0
20260904064004 65 235 0.0 0.0 0.00 0.00 0.00 88 1011.9
20260904063005 65 235 0.0 0.0 0.00 0.00 0.00 88 1012.0
20260904061004 66 235 0.0 0.0 0.00 0.00 0.00 87 1011.7
20260904060005 66 235 0.0 0.0 0.00 0.00 0.00 87 1011.7
20260904055004 66 235 0.0 0.0 0.00 0.00 0.00 87 1011.7
20260904054004 67 235 0.0 0.0 0.00 0.00 0.00 86 1011.7
20260904052006 67 235 0.0 0.0 0.00 0.00 0.00 86 1011.8
20260904044004 68 223 0.0 0.0 0.00 0.00 0.00 85 1011.9
20260904043005 68 198 0.0 0.0 0.00 0.00 0.00 84 1011.8
20260904042004 68 263 0.0 0.0 0.00 0.00 0.00 84 1011.7
20260904041004 68 193 0.0 1.0 0.00 0.00 0.00 83 1011.6
20260904040005 68 76 0.0 1.0 0.00 0.00 0.00 82 1011.6
20260904035005 69 320 0.0 1.0 0.00 0.00 0.00 82 1011.5
20260904034004 69 312 0.0 0.0 0.00 0.00 0.00 82 1011.4
20260904033005 69 49 0.0 1.0 0.00 0.00 0.00 83 1011.3
20260904032005 69 283 0.0 0.0 0.00 0.00 0.00 82 1011.2
20260904031004 69 17 0.0 0.0 0.00 0.00 0.00 82 1011.0
20260904030005 70 7 0.0 0.0 0.00 0.00 0.00 82 1010.8
20260904025004 70 39 0.0 1.0 0.00 0.00 0.00 81 1010.7
20260904024004 70 167 0.0 1.0 0.00 0.00 0.00 80 1010.7
20260904023004 71 114 0.0 1.0 0.00 0.00 0.00 79 1010.8
20260904022005 71 24 0.0 0.0 0.00 0.00 0.00 78 1010.8
20260904021004 72 350 0.0 0.0 0.00 0.00 0.00 74 1010.8
20260904020004 72 31 0.0 1.0 0.00 0.00 0.00 70 1010.8
20260904015004 73 65 0.0 3.0 0.00 0.00 0.00 68 1010.8
20260904014005 74 27 0.0 3.0 0.00 0.00 0.00 70 1010.9
20260904013004 75 6 0.0 4.0 0.00 0.00 0.00 68 1010.9
20260904012005 76 18 0.0 4.0 0.00 0.00 0.00 65 1010.9
20260904011004 77 18 0.0 3.0 0.00 0.00 0.00 63 1010.8
20260904005005 79 316 0.0 1.0 0.00 0.00 0.00 61 1010.9
20260904003004 79 45 2.0 5.0 0.00 0.00 0.00 61 1010.8